Hourly Data Report for October 22, 2015

All times are specified in Local Standard Time (LST). Add 1 hour to adjust for Daylight Saving Time where and when it is observed.

RANKIN INLET A
NUNAVUT

62°48'38.000" N
92°06'53.000" W
32.30 m
2303405
71083
YRT

Download Data

Hourly Data (October 2015)
Hourly Data Report for October 22, 2015
Temp Definition
°C
Dew Point Temp Definition
°C
Rel Hum Definition
%
Wind Dir Definition
10's deg

Wind Spd Definition
km/h
Visibility Definition
km
Stn Press Definition
kPa
Hmdx Definition


Wind Chill Definition


Weather Definition


TIME
00:00 Legend Double Dagger -3.7 -4.7 93 11 4 4.8 101.86   -5 Snow
01:00 Legend Double Dagger -3.0 -4.4 90 17 10 4.8 101.82   -7 Snow
02:00 Legend Double Dagger -3.0 -4.3 91 15 5 4.8 101.83   -5 Snow
03:00 Legend Double Dagger -2.9 -3.7 94 9 10 4.8 101.82   -7 Snow
04:00 Legend Double Dagger -2.2 -2.9 95 10 13 4.8 101.77   -7 Snow
05:00 Legend Double Dagger -1.8 -2.5 95 11 18 4.8 101.73   -7 Snow
06:00 Legend Double Dagger -2.2 -2.9 95 9 10 12.9 101.70   -6 Cloudy
07:00 Legend Double Dagger -0.3 -1.7 90 17 18 16.1 101.67   -5 Snow
08:00 Legend Double Dagger -0.1 -3.7 77 19 17 24.1 101.64   -5 Snow
09:00 Legend Double Dagger -0.3 -4.2 75 19 16 24.1 101.62   -5 Snow
10:00 Legend Double Dagger -0.3 -4.4 74 19 19 24.1 101.58   -5 Snow
11:00 Legend Double Dagger -0.4 -3.6 79 17 18 24.1 101.50   -5 Snow
12:00 Legend Double Dagger 0.0 -3.0 80 17 19 24.1 101.42   -5 Snow
13:00 Legend Double Dagger 0.1 -2.9 80 19 23 24.1 101.35     Snow
14:00 Legend Double Dagger 0.0 -2.7 82 19 23 24.1 101.26   -6 Snow
15:00 Legend Double Dagger -0.1 -3.1 80 19 24 24.1 101.21   -6 Snow
16:00 Legend Double Dagger -0.3 -1.7 90 19 26 9.7 101.12   -6 Snow
17:00 Legend Double Dagger -1.5 -2.3 94 19 17 3.2 101.02   -7 Snow
18:00 Legend Double Dagger -0.7 -1.4 95 18 34 3.2 100.93   -8 Snow
19:00 Legend Double Dagger -0.6 -1.3 95 18 34 3.2 100.80   -8 Snow
20:00 Legend Double Dagger -0.3 -1.0 95 18 31 3.2 100.66   -7 Snow
21:00 Legend Double Dagger -0.5 -1.2 95 20 29 3.2 100.55   -7 Snow
22:00 Legend Double Dagger -1.1 -2.1 93 21 23 3.2 100.46   -7 Snow
23:00 Legend Double Dagger -1.0 -2.3 91 20 25 3.2 100.36   -7 Snow

Notes on Data Quality.

Legend

  • E = Estimated
  • M = Missing
  • NA = Not Available
  • ‡ = Partner data that is not subject to review by the National Climate Archives
Date modified: